GFSSGP_prec_cloud_162.txt.gz
Cloud_Cover
5 5 5 5 84 93 100 76 100 88 5 5 0 0 0 0 0 0 0 0 0 3 0 0 0 0 0 0 0 0 0 0 0 0 0 0 0 0 0 0 0 0 0 0 0 1 8 14 0
5 5 0 3 5 1 61 100 6 6 0 0 0 0 0 0 0 0 0 0 0 0 0 0 0 0 0 0 0 0 0 0 0 0 0 0 0 0 0 0 0 1 33 15 6 0 0 0 0
2 0 4 5 5 0 0 69 13 0 0 0 0 0 0 0 0 0 0 0 0 0 0 0 0 0 0 0 0 0 0 0 0 0 0 0 0 0 0 0 0 0 0 0 4 0 1 9 7
0 2 5 20 22 0 5 4 5 0 0 0 0 0 0 0 0 0 0 0 0 0 0 0 0 0 0 0 0 0 0 0 0 0 0 0 0 35 0 0 0 0 0 0 0 0 18 27 0
0 0 5 5 5 5 12 15 5 5 5 4 5 5 2 5 5 4 2 0 0 0 0 0 0 0 0 0 0 0 0 0 0 0 0 0 0 0 0 0 0 0 0 0 0 0 0 21 6
5 4 5 51 34 5 10 26 6 5 5 5 5 5 19 33 22 16 5 2 0 0 0 0 19 0 0 0 0 0 0 0 0 0 0 0 0 0 0 0 0 0 0 0 0 0 0 0 0
86 5 8 100 43 5 24 58 42 26 21 5 10 29 22 71 71 62 7 0 0 0 0 0 5 5 44 0 0 0 0 0 0 0 0 0 0 0 0 0 0 0 0 0 0 0 0 0 0
100 77 66 100 32 5 39 79 35 84 86 16 22 5 10 88 82 64 6 0 0 0 0 0 11 8 8 2 0 0 0 0 0 0 0 0 0 0 0 0 0 0 0 0 0 0 0 0 0
92 100 100 100 90 5 36 99 55 57 100 14 6 9 5 7 25 36 5 0 0 0 0 0 5 11 9 9 2 0 0 0 0 0 0 0 0 0 0 0 0 0 0 0 0 0 0 0 0
100 100 97 100 100 5 60 100 72 6 70 66 5 35 5 5 5 5 5 5 4 0 0 0 5 5 3 24 4 24 85 95 3 0 0 0 0 0 0 0 0 0 0 0 0 0 0 0 0
100 100 89 100 100 64 16 54 67 76 100 91 18 5 49 23 5 5 5 1 5 0 0 6 90 97 53 45 5 4 76 100 100 77 5 0 23 0 0 0 0 0 0 0 0 0 0 0 2
100 100 89 84 100 100 10 62 100 61 42 56 65 9 31 6 5 5 1 1 4 0 0 5 100 100 100 34 33 21 1 19 100 100 100 100 100 50 87 92 46 19 1 0 0 0 0 0 0
100 100 100 100 100 100 72 41 100 82 48 6 58 70 71 51 13 8 7 7 5 6 5 56 100 100 70 36 30 4 2 2 2 45 100 100 100 100 100 100 100 100 100 91 74 48 11 1 1
100 100 100 100 100 100 100 44 98 87 59 5 9 98 100 100 86 98 95 53 92 96 100 100 100 100 100 100 24 5 10 5 24 28 10 100 100 100 100 100 100 100 100 100 100 100 98 94 98
100 31 75 100 100 100 100 100 100 10 58 98 40 48 14 68 68 100 100 100 100 100 100 80 100 100 100 38 5 5 9 8 5 5 43 70 10 100 100 100 100 100 100 100 100 100 100 100 100
100 93 11 100 100 100 100 100 100 100 100 100 100 39 5 86 100 100 100 100 100 85 89 100 100 51 7 7 15 5 1 2 1 4 100 100 100 100 100 100 100 100 100 100 100 100 100 100 100
100 100 88 100 100 33 100 100 100 100 100 100 100 100 100 36 100 100 100 100 100 39 13 89 84 58 19 5 5 1 0 4 5 12 78 100 100 100 100 100 100 100 100 100 100 100 100 100 100
100 100 99 100 100 99 73 100 100 100 100 100 100 100 100 100 100 100 100 100 7 44 100 73 5 5 5 5 1 1 2 66 36 58 75 72 100 100 100 100 80 100 100 100 100 100 100 100 100
100 100 100 100 100 31 84 100 100 100 100 100 100 100 100 100 100 100 100 100 100 100 100 93 5 5 5 0 4 5 86 28 57 100 44 100 100 100 100 100 100 100 100 100 100 100 100 100 100
95 100 100 100 100 99 94 100 100 100 100 100 100 100 98 99 100 100 100 97 100 100 100 99 75 5 3 4 39 100 16 17 13 38 98 100 100 100 100 100 100 100 100 100 100 100 100 100 100
99 100 100 100 100 100 100 98 93 100 100 100 100 100 100 100 100 100 100 100 100 100 8 4 4 19 34 35 70 100 81 14 98 89 100 100 100 100 100 100 100 98 99 100 100 100 85 64 48
71 95 96 100 100 100 45 100 100 100 100 100 100 100 100 100 100 100 100 100 100 93 5 6 5 5 62 99 52 100 92 90 100 100 100 100 100 100 100 26 4 5 5 5 0 0 4 3 53
33 74 30 5 93 97 100 86 100 100 100 100 100 100 100 100 100 100 100 100 100 99 59 5 10 59 74 6 9 71 95 100 100 100 100 100 97 20 5 5 5 5 5 2 0 0 0 10 57
97 100 76 11 48 30 99 100 100 100 100 100 100 100 100 100 100 100 100 100 100 25 59 99 97 64 96 85 18 5 5 66 89 93 55 16 5 5 5 5 5 4 0 0 0 0 0 0 0
100 97 89 52 80 96 82 100 100 100 100 100 100 100 100 100 100 100 100 44 66 27 20 25 92 74 50 13 5 5 5 5 27 61 5 5 5 5 5 5 5 4 5 5 5 1 3 2 5
100 100 85 8 96 58 100 100 100 100 100 100 100 100 100 100 100 100 18 93 97 99 53 34 57 47 5 8 5 5 78 41 5 5 5 5 5 5 5 5 5 5 5 5 5 5 5 5 5
100 100 100 67 5 92 100 97 100 100 100 100 100 100 100 100 100 100 100 100 100 99 100 92 8 5 6 71 86 18 5 5 5 5 5 5 5 5 5 5 5 5 5 27 44 56 8 42 7
100 100 100 100 39 47 98 100 100 100 100 100 100 100 100 100 100 100 100 100 100 99 90 57 57 9 48 32 15 14 9 7 11 5 5 5 5 13 65 5 6 5 5 5 5 5 5 5 5
100 100 100 100 100 100 100 97 100 100 100 97 82 95 98 100 100 100 100 100 98 81 13 41 55 15 29 15 5 5 5 5 8 8 5 6 58 87 55 63 42 12 60 13 10 8 5 5 5
100 100 100 100 100 100 100 100 100 100 100 100 100 98 100 100 100 99 100 92 100 100 54 83 18 6 16 48 19 5 54 77 22 5 5 72 100 100 100 93 62 63 66 6 6 5 5 40 57

GFSSGP_prec_cloud_165.txt.gz
Cloud_Cover
0 0 0 5 100 100 100 100 100 100 25 64 5 5 0 0 0 0 0 0 0 28 0 0 1 2 0 0 0 0 0 0 0 6 14 10 0 0 0 0 0 2 9 13 0 6 12 0 0
0 0 4 5 91 82 85 100 100 48 86 100 10 0 0 0 0 0 0 0 0 3 0 0 0 0 0 0 0 0 0 0 0 0 6 1 0 0 0 0 0 6 10 11 5 0 0 22 0
5 0 3 6 5 5 63 75 100 22 28 100 13 0 0 0 0 0 0 0 0 0 0 0 0 0 0 0 0 0 0 0 0 0 0 0 0 0 0 0 0 2 0 0 0 0 0 16 0
5 3 5 32 5 5 5 5 52 37 92 37 0 0 0 0 0 0 0 0 0 0 0 0 0 0 0 0 0 0 0 0 0 0 0 2 39 80 2 0 0 0 0 0 0 3 23 20 0
5 5 46 38 5 5 69 12 5 5 83 2 1 1 0 0 0 4 5 0 1 3 0 0 0 0 0 0 0 0 0 0 0 0 0 0 0 0 0 0 0 0 0 0 0 0 2 1 0
5 6 89 100 8 5 67 19 5 5 12 5 5 5 4 5 5 5 5 5 5 5 1 1 20 0 0 0 0 0 0 0 0 0 0 0 0 0 0 0 0 0 0 0 0 0 0 0 0
5 10 100 100 46 5 73 52 6 18 63 47 7 5 5 5 5 6 5 5 5 5 4 12 11 8 44 0 0 0 0 0 0 0 0 0 0 0 0 0 0 0 0 0 0 0 0 0 0
5 53 100 100 84 20 72 66 5 52 97 27 39 22 43 7 12 10 42 8 5 5 3 15 18 14 6 0 0 0 0 0 0 0 0 0 0 0 0 0 0 0 0 0 0 0 0 0 0
100 100 100 100 100 15 68 96 9 8 38 8 38 6 10 61 20 8 46 37 5 5 4 3 21 23 14 8 3 1 5 5 0 0 0 0 0 0 0 0 0 0 0 0 0 0 0 0 0
100 100 100 100 100 48 41 94 47 19 5 5 69 6 8 48 12 22 6 5 5 5 5 5 6 18 18 68 97 51 5 31 19 7 0 0 0 0 0 0 0 0 0 0 0 0 0 0 0
69 97 100 100 100 100 23 78 38 5 93 7 65 86 32 99 57 23 39 14 21 5 5 5 5 5 14 100 100 100 94 37 100 92 16 0 1 0 6 0 0 0 0 0 0 0 0 1 6
100 100 100 100 100 100 100 100 56 5 28 96 6 80 100 100 100 78 61 49 30 22 5 5 5 5 5 79 100 100 100 44 6 2 78 100 100 100 53 71 100 68 62 64 22 3 3 1 0
87 100 95 100 100 100 100 100 100 64 6 48 96 49 92 100 100 88 66 93 96 61 14 43 54 69 94 100 100 100 79 9 0 1 3 72 94 100 100 100 100 100 100 100 100 100 100 87 7
99 100 34 97 100 100 100 100 100 100 58 5 57 100 98 100 97 89 100 100 100 99 57 96 100 100 92 5 53 24 5 0 3 15 0 1 50 100 100 100 100 100 100 100 100 100 100 100 100
100 94 93 40 99 100 100 100 100 100 100 50 56 100 46 89 100 100 100 100 100 100 100 100 100 100 100 95 84 96 5 9 23 40 88 100 91 100 47 100 100 100 100 100 100 100 100 100 100
88 93 99 100 100 92 99 100 100 100 100 100 100 100 92 99 100 99 74 100 100 100 100 100 100 100 100 100 100 100 100 73 75 29 100 100 100 100 100 100 100 100 100 100 100 100 100 100 100
83 87 100 100 100 61 74 100 100 100 100 100 100 100 100 82 100 100 100 93 96 100 100 100 100 97 100 92 12 42 84 65 55 11 34 11 81 48 100 100 90 100 100 100 100 100 100 100 100
100 93 76 80 100 75 69 90 100 98 23 63 100 100 100 100 100 100 100 100 100 100 100 100 100 100 100 5 5 54 86 93 100 100 100 95 60 56 98 100 100 94 97 100 100 100 100 100 100
82 35 93 100 68 94 36 100 100 100 100 100 98 100 100 100 100 100 100 100 100 100 100 100 100 100 100 6 5 38 100 100 100 100 47 20 70 80 58 100 67 100 100 100 100 100 100 100 100
98 100 96 91 85 14 78 82 100 100 100 100 98 10 8 91 100 100 100 100 100 100 100 100 99 100 100 55 42 94 76 100 93 68 11 16 5 98 100 100 100 100 100 100 79 78 100 100 93
86 98 93 100 86 37 96 28 100 100 100 100 100 100 56 100 100 100 100 100 100 100 100 100 92 100 100 60 56 76 100 87 61 3 70 100 95 99 100 100 100 100 98 73 25 12 32 2 13
99 96 79 93 94 28 60 64 100 100 100 100 100 100 100 79 90 89 100 100 100 100 100 100 100 100 100 50 50 5 61 11 17 26 100 100 100 96 86 40 15 5 5 5 0 5 11 14 43
66 100 99 98 81 46 85 22 100 100 100 90 100 100 100 100 77 23 20 21 9 23 97 70 98 100 46 5 5 8 47 72 98 94 84 99 99 57 5 5 5 5 5 5 5 5 5 5 4
100 100 100 90 22 56 100 99 100 100 100 100 100 100 100 100 97 75 52 63 85 98 100 100 100 100 52 5 14 33 54 58 100 98 64 32 14 5 5 5 5 5 5 5 5 5 5 3 3
100 100 100 100 90 69 100 84 98 100 100 100 100 100 100 100 100 100 100 100 100 100 77 100 100 65 18 62 99 94 87 66 89 90 77 93 48 21 6 5 5 5 22 5 5 5 5 5 5
100 100 100 69 44 91 97 100 100 97 100 100 100 100 100 97 100 93 100 99 100 72 6 16 8 5 82 59 10 16 76 100 54 97 99 77 76 5 5 5 19 8 5 5 5 5 5 5 5
49 99 100 100 100 76 29 100 100 100 74 100 100 100 100 99 78 99 100 100 100 77 9 36 55 97 60 100 63 100 100 100 100 100 100 21 6 5 7 14 5 15 5 5 5 5 5 5 38
5 65 94 100 100 100 100 69 100 100 100 100 87 61 98 100 100 100 100 100 100 61 51 84 100 100 100 100 99 100 100 100 100 100 100 63 94 37 8 18 23 66 73 14 5 5 6 40 52
87 79 21 45 18 100 100 100 100 100 100 100 100 100 100 100 100 100 100 100 99 100 100 100 90 100 100 100 100 100 100 100 78 72 59 32 7 5 69 100 100 66 86 74 7 46 92 99 100
51 9 30 32 60 88 50 100 100 100 100 100 100 100 100 100 100 100 100 74 98 98 97 99 96 100 100 100 100 100 100 100 86 71 69 64 18 52 95 99 100 90 79 80 56 93 100 97 8

GFSSGP_prec_cloud_168.txt.gz
Cloud_Cover
5 0 0 0 2 94 100 94 98 100 54 5 5 4 0 0 0 0 0 0 0 18 2 16 8 0 0 0 0 0 0 3 3 6 4 9 0 0 0 0 0 18 76 96 71 46 13 0 0
5 3 3 0 2 31 90 100 100 78 100 92 72 15 0 0 0 0 0 0 0 13 0 0 4 0 0 0 0 0 0 0 0 33 6 5 0 0 0 0 0 19 20 4 0 1 2 5 0
5 5 4 0 2 6 97 100 100 64 57 42 56 89 15 1 0 0 0 0 3 6 0 0 0 0 0 0 0 0 0 0 0 0 12 0 0 0 0 0 0 0 0 0 0 0 0 16 0
5 5 5 5 4 4 23 99 100 42 74 33 6 81 12 0 0 0 0 0 9 10 2 0 0 0 0 0 0 0 0 0 0 0 0 1 100 8 0 0 0 0 0 0 0 0 49 3 0
5 5 42 5 5 5 38 52 29 4 5 22 79 98 30 0 0 0 0 2 1 12 6 0 0 0 0 0 0 1 0 0 0 0 0 0 8 55 32 0 0 0 0 0 0 0 0 1 0
5 5 54 31 9 30 46 80 5 5 5 8 75 83 11 5 5 5 3 5 4 6 7 3 22 0 0 0 0 0 0 0 0 0 0 8 0 0 4 0 0 0 0 0 0 0 0 0 0
5 5 5 48 36 5 40 79 67 5 5 5 5 11 5 5 5 5 5 5 5 5 8 12 13 14 45 0 0 0 0 0 0 0 0 0 0 0 0 0 0 0 0 0 0 0 0 0 0
5 7 8 65 17 9 50 95 59 5 5 18 5 5 5 5 5 5 5 5 5 5 5 13 18 12 6 0 0 0 0 0 0 0 0 0 0 0 0 0 0 0 15 0 0 0 0 0 0
3 6 20 75 95 46 6 59 93 13 5 9 10 5 5 5 5 5 5 5 5 6 5 10 22 24 16 5 9 5 2 5 0 1 1 0 0 0 0 0 0 0 0 0 0 0 0 0 0
96 6 63 100 100 100 37 7 88 71 15 31 45 40 68 36 52 61 36 6 5 5 5 8 14 22 21 5 5 8 82 71 5 65 9 0 0 0 0 0 0 0 0 0 0 0 0 0 0
98 43 12 100 100 100 100 46 5 17 42 18 99 48 39 74 6 11 10 5 5 5 5 5 5 6 20 25 19 29 25 86 33 52 33 0 1 2 25 6 0 0 0 1 10 4 0 0 5
100 98 95 100 100 100 100 100 96 5 5 16 77 94 75 61 64 22 22 6 6 5 5 5 5 5 12 27 26 38 58 100 100 78 6 0 98 100 100 92 100 100 100 100 100 100 100 100 97
100 100 67 86 100 100 100 100 100 99 29 34 20 28 75 100 42 5 18 80 80 26 15 13 46 90 85 75 89 100 100 100 83 37 54 38 7 54 100 100 100 100 100 100 100 100 100 100 100
100 100 100 95 98 100 100 100 100 100 100 92 80 9 16 92 100 60 8 23 69 51 26 97 100 100 100 100 100 100 76 57 86 100 100 86 98 100 100 100 100 100 100 100 100 100 100 100 100
100 94 19 80 100 100 100 100 100 100 100 100 100 94 15 93 100 81 86 87 79 93 91 59 8 78 100 100 100 94 6 100 87 93 100 100 100 100 100 100 100 100 100 100 100 100 100 100 100
100 99 98 100 94 100 97 100 100 100 100 100 100 100 84 6 70 100 100 20 33 85 48 31 24 49 97 100 100 100 73 5 27 35 85 91 100 66 95 100 100 100 100 100 100 100 100 43 52
95 100 56 61 9 6 11 100 100 98 97 100 100 100 100 100 100 100 100 92 78 24 16 63 100 100 100 100 100 100 100 90 93 95 100 92 41 47 4 62 37 99 100 100 40 78 100 100 100
100 100 100 99 100 39 26 95 100 40 74 62 85 100 100 100 100 100 100 100 100 100 100 100 100 100 100 100 100 100 100 100 100 98 100 100 99 98 69 62 44 98 100 99 100 100 100 100 100
100 100 100 100 100 99 6 18 100 100 99 18 35 6 14 100 100 100 100 100 100 100 100 100 100 100 100 100 100 100 100 100 100 100 100 100 94 44 89 81 14 45 97 100 100 71 48 100 100
100 78 100 63 8 6 30 62 19 99 100 100 70 36 74 94 100 100 100 100 100 100 100 100 100 100 100 100 93 100 100 96 100 98 60 24 29 42 2 18 100 100 100 100 88 99 75 23 72
86 100 100 6 5 6 96 100 100 100 100 100 100 100 53 96 99 91 88 84 88 100 100 100 100 100 100 100 99 100 100 99 80 96 33 8 22 59 50 61 100 100 100 57 6 5 4 5 4
83 100 16 94 5 84 94 100 100 100 100 100 100 100 69 37 100 80 99 82 86 89 92 100 100 100 54 53 51 91 100 88 81 100 35 47 95 97 42 100 21 87 78 5 5 5 13 25 61
18 5 5 5 5 21 46 27 100 100 100 97 94 92 99 60 10 100 100 99 85 100 100 77 98 98 74 21 76 100 100 100 100 100 92 95 69 34 89 30 100 23 13 5 5 5 5 5 7
100 100 96 74 14 22 88 36 99 100 100 100 51 31 41 52 84 69 24 12 92 100 100 100 100 96 89 91 97 98 84 36 89 20 86 100 28 5 58 90 62 6 5 5 5 5 5 5 5
100 100 100 100 93 5 45 34 99 97 100 100 5 49 90 90 100 100 96 62 100 50 49 42 63 85 84 75 95 99 98 95 100 100 76 94 77 57 8 5 5 5 5 5 5 5 5 5 5
100 100 100 100 100 100 93 100 76 22 88 100 99 82 100 100 48 45 92 100 100 100 79 83 57 100 100 100 93 95 99 99 100 100 98 100 77 40 43 5 5 5 5 5 5 5 5 8 8
94 95 100 100 100 100 100 100 100 100 100 100 100 100 100 100 93 92 100 100 100 96 66 78 97 100 100 100 100 100 100 96 63 15 5 13 55 76 85 6 8 26 8 32 60 66 78 46 5
67 68 70 47 40 64 61 100 100 100 100 100 100 100 100 100 100 100 100 83 73 39 37 34 70 64 78 89 61 69 7 5 10 52 100 100 100 91 80 84 90 14 50 95 89 82 62 40 8
78 20 5 5 5 5 5 15 83 42 68 96 100 100 100 100 100 100 100 100 100 100 100 97 98 100 93 97 90 90 66 43 99 95 60 100 100 100 100 99 84 35 77 70 61 20 19 54 14
57 35 80 74 66 23 5 47 100 98 95 15 26 17 72 100 100 100 100 100 100 100 100 24 100 100 100 100 100 100 100 100 100 100 100 100 100 97 25 75 39 20 65 71 64 51 52 89 32

GFSSGP_prec_cloud_171.txt.gz
Cloud_Cover
5 3 5 5 0 2 6 7 5 5 5 5 5 5 4 0 0 0 0 0 0 8 10 0 3 3 0 0 0 0 0 0 2 8 4 0 0 0 0 0 1 97 65 97 78 29 10 0 0
5 0 4 5 0 1 73 29 85 12 73 92 16 10 5 0 0 0 0 7 4 8 0 0 52 0 0 0 0 0 0 0 2 39 10 0 0 0 0 0 4 100 0 1 2 0 8 0 0
5 0 4 5 0 1 26 56 88 55 100 47 98 8 36 42 5 0 0 4 9 19 10 0 0 0 0 0 0 0 0 0 0 2 2 0 0 0 0 11 0 0 0 0 0 0 4 1 0
70 12 0 5 0 5 20 74 51 100 100 23 5 30 66 6 5 1 0 0 4 24 6 6 0 0 0 0 0 0 0 0 0 0 0 99 100 25 0 0 0 0 0 0 0 73 56 3 0
76 69 4 4 5 5 5 7 5 96 92 34 36 42 21 79 30 5 2 0 0 30 10 0 0 0 0 0 0 0 0 0 0 0 0 0 5 84 0 0 0 0 0 0 0 0 0 0 1
91 71 65 5 4 5 5 5 5 5 7 20 7 9 46 27 49 10 0 0 0 3 16 5 22 0 0 0 0 0 0 0 0 0 1 2 4 36 2 0 0 0 0 0 0 0 0 0 0
100 99 100 5 5 5 5 5 5 5 5 4 5 5 13 6 18 5 5 5 5 5 17 24 23 9 45 0 0 0 0 0 0 0 0 0 0 0 0 0 0 0 0 0 0 0 0 0 0
100 100 100 12 5 3 5 5 61 5 5 5 9 5 5 5 5 4 3 5 10 12 8 24 32 21 6 0 0 0 0 0 0 0 0 0 0 0 0 0 0 0 0 14 0 0 0 0 0
100 100 100 98 5 1 5 12 87 10 5 5 10 7 5 8 5 7 26 25 30 26 19 18 26 23 14 6 6 13 1 0 0 0 1 0 0 0 0 0 0 0 0 0 0 0 0 0 0
100 100 100 42 5 5 5 28 74 42 5 5 6 16 5 34 15 5 5 5 6 5 5 7 13 12 21 11 7 5 5 5 1 0 3 70 4 0 0 0 0 0 0 0 0 0 0 0 0
100 100 100 44 15 33 8 98 100 98 21 5 35 60 49 24 37 5 5 5 5 5 5 5 5 3 14 14 12 18 5 5 7 17 5 5 6 7 18 17 0 0 0 8 46 94 77 85 62
100 100 100 99 78 5 44 98 100 100 100 20 9 19 90 84 43 5 5 5 5 5 5 5 5 5 5 7 11 27 32 99 100 100 88 50 47 66 100 100 100 100 100 100 100 100 100 100 100
100 100 100 100 100 56 50 96 100 100 100 100 61 14 8 47 80 55 41 51 28 5 5 8 27 7 12 55 100 100 100 100 100 100 100 100 100 100 100 100 100 100 100 100 100 100 100 100 100
100 100 100 100 100 100 100 100 100 100 75 53 100 100 75 6 56 47 13 25 5 5 5 16 6 24 93 100 84 23 42 63 100 100 100 100 100 100 100 100 100 100 100 100 100 100 100 100 100
99 100 100 100 100 100 100 98 100 100 84 5 82 100 100 100 98 41 43 39 7 5 5 5 35 97 98 82 75 17 42 98 100 100 100 100 100 100 99 100 100 100 100 100 100 100 100 100 52
100 75 100 100 100 100 100 100 100 100 100 97 46 100 100 100 100 100 96 57 41 58 36 5 5 6 8 5 11 47 100 100 100 100 100 98 33 27 22 8 35 61 10 19 16 19 2 65 77
100 100 100 100 100 100 75 99 100 100 100 100 95 91 100 100 85 98 100 100 62 91 100 100 99 95 71 55 98 100 100 100 99 100 100 100 100 100 75 82 75 40 44 42 100 100 84 96 100
100 100 100 100 100 100 95 100 100 48 99 26 100 100 84 87 100 100 100 100 100 100 100 100 100 100 100 100 100 100 100 99 99 83 100 100 100 100 100 100 79 82 75 66 51 89 80 100 63
100 100 100 100 100 94 95 100 100 38 100 100 98 100 100 95 100 100 100 100 100 100 100 100 100 100 100 63 59 84 55 82 96 100 100 100 100 100 61 5 7 93 67 49 92 78 91 69 47
100 100 100 100 100 68 37 100 78 77 91 58 56 100 53 38 93 100 100 100 17 8 16 54 100 100 92 74 68 88 100 100 100 100 100 99 100 100 96 100 98 73 100 98 80 4 6 48 21
71 100 100 100 100 100 51 100 41 5 22 92 78 21 76 86 100 100 100 100 100 100 52 37 78 78 81 92 100 100 100 98 64 82 95 36 100 100 77 42 96 69 69 5 5 5 12 55 94
56 44 100 72 70 72 97 100 100 100 98 66 74 94 69 96 100 97 100 98 100 93 98 100 100 95 100 100 100 80 83 71 49 41 88 65 96 60 94 52 6 39 89 89 93 53 93 55 19
25 59 21 11 5 5 14 16 100 100 100 100 96 95 100 97 100 96 77 61 88 78 90 100 100 100 100 58 13 61 27 74 99 95 100 100 72 75 91 89 100 100 100 100 25 25 5 5 5
100 58 95 100 90 32 100 13 90 99 20 5 15 84 100 100 100 100 100 66 25 27 94 98 100 73 35 59 33 69 97 98 65 52 5 5 5 23 88 84 98 87 6 5 5 27 48 70 25
100 100 100 80 34 5 76 38 5 100 99 64 13 5 34 23 5 24 91 33 21 59 100 75 16 45 78 97 100 100 98 91 76 79 97 100 100 100 88 68 6 58 28 5 39 52 87 92 44
100 80 9 29 100 98 93 100 100 98 97 100 100 100 96 24 28 25 5 6 24 29 23 56 74 98 100 100 100 100 100 48 35 41 71 78 7 5 6 5 5 5 5 50 98 99 89 100 100
100 100 100 100 100 100 95 100 100 100 100 100 100 100 70 72 18 7 8 20 7 13 20 12 51 100 79 48 65 32 6 5 5 5 5 5 15 29 6 38 33 99 100 64 100 100 100 99 43
100 100 100 100 100 100 100 100 100 100 100 100 100 100 100 100 100 100 100 100 100 100 100 100 100 99 93 100 88 98 80 41 11 11 32 52 31 69 84 79 100 100 68 99 100 99 85 70 10
100 100 100 82 34 5 50 100 88 100 100 90 79 100 100 100 100 100 100 100 70 78 80 38 20 58 92 93 84 47 56 66 73 68 77 96 95 81 88 100 100 100 100 100 59 65 7 5 9
100 100 100 100 100 90 7 10 14 23 30 55 5 5 5 6 25 25 96 98 72 63 57 91 66 87 88 22 5 10 56 76 98 97 100 79 99 100 100 100 100 100 100 98 92 91 59 99 100